Regional Weather Roundup
Issued by NWS State College, PA

Current Version | Previous Version | Text Only | Print | Product List | Glossary On
Versions: 1 2 3 4 5 6 7 8 9 10 11 12 13 14 15 16 17 18 19 20 21 22 23 24 25 26 27 28 29 30 31 32 33 34 35 36 37 38 39 40 41 42 43 44 45 46 47 48 49 50
195
ASUS41 KCTP 121410
RWRCTP

REGIONAL WEATHER ROUNDUP
NATIONAL WEATHER SERVICE STATE COLLEGE PA
1000 AM EDT MON APR 12 2021

Note: "fair" indicates few or no clouds below 12,000 feet with no
significant weather and/or obstructions to visibility.

* = STATION THAT DOES NOT REPORT PRECIPITATION /E.G. RAIN...SNOW...ETC/
    THUNDER OR FOG.

PAZ002>004-007>009-013>016-020>023-029>032-121500-
WESTERN PENNSYLVANIA

CITY           SKY/WX    TMP DP  RH WIND       PRES   REMARKS
ERIE           CLOUDY    53  48  83 S6        29.64R
MEADVILLE      CLOUDY    50  46  86 S3        29.64R
FRANKLIN       CLOUDY    49  45  86 SW7       29.66R
NEW CASTLE     CLOUDY    53  47  79 SW5         N/A
BEAVER COUNTY  CLOUDY    51  46  81 SW7       29.66R
BUTLER         CLOUDY    53  47  79 S7        29.67R
PITTSBURGH INT CLOUDY    51  44  77 W8        29.67R
PITTSBURGH     CLOUDY    51  45  79 VRB3      29.67R
INDIANA*       CLOUDY    52  46  82 SW5G12    29.71R
LATROBE        CLOUDY    52  48  87 SW7       29.68R
WASHINGTON CO* CLOUDY    51  46  83 SW13      29.71R
$$

PAZ004>006-010>012-017>019-024>028-033>037-041-042-045-046-049>053-121500-
CENTRAL PENNSYLVANIA

CITY           SKY/WX    TMP DP  RH WIND       PRES   REMARKS
BRADFORD       CLOUDY    50  41  71 S7        29.66R
ST MARYS       CLOUDY    46  45  93 CALM      29.70R
DUBOIS         LGT RAIN  48  45  89 SW3       29.66R FOG
CLEARFIELD     LGT RAIN  50  46  86 CALM      29.68R
JOHNSTOWN      CLOUDY    49  41  74 SW6       29.67R
SOMERSET       LGT RAIN  46  43  87 W6        29.68R
ALTOONA        CLOUDY    54  44  69 S10       29.68R
STATE COLLEGE  CLOUDY    52  46  82 S5        29.68R
REEDSVILLE     CLOUDY    52  52 100 E5        29.69R
WELLSBORO      CLOUDY    48  48 100 S12       29.67R
WILLIAMSPORT   CLOUDY    51  47  86 E8        29.70R
SELINSGROVE    LGT RAIN  50  46  86 SE6       29.72R FOG
FT INDIANTOWN  CLOUDY    48  48 100 E6        29.74R
CAPITAL CITY   LGT RAIN  51  48  89 E8        29.73R FOG
HARRISBURG     CLOUDY    51  47  86 SE10      29.73R
YORK           CLOUDY    51  46  83 E8        29.72R
$$

PAZ038>040-043-044-047-048-054-055-060>062-067>071-121500-
EASTERN PENNSYLVANIA

CITY           SKY/WX    TMP DP  RH WIND       PRES   REMARKS
TOWANDA        CLOUDY    48  45  87 CALM      29.76R
SCRANTON       CLOUDY    46  36  68 VRB6      29.76R
MOUNT POCONO   CLOUDY    39  34  82 E10G18    29.74R
HAZLETON       CLOUDY    43  43 100 E6        29.76R FOG
LEHIGHTON      CLOUDY    45  43  93 E6        29.77R FOG
ALLENTOWN      CLOUDY    47  39  74 E14       29.76S
QN CITY/ALNTWN CLOUDY    46  43  87 NE16      29.77S
QUAKERTOWN*    CLOUDY    46  45  93 NE7G14    29.76R
PERKASIE*      CLOUDY    45  45 100 NE14G20   29.76S FOG
DOYLESTOWN     CLOUDY    47  43  86 VRB3      29.76R
READING        CLOUDY    50  44  80 E7        29.73R
LANCASTER      CLOUDY    50  45  83 NE10      29.74R
COATESVILLE    CLOUDY    46  46 100 NE6G14    29.74R
WEST CHESTER   CLOUDY    46  43  87 NE10G21   29.74R
POTTSTOWN      CLOUDY    45  42  89 NE14      29.76R
BLUE BELL      CLOUDY    46  45  94 NE8       29.75R
NORTH PHILA    CLOUDY    46  45  96 NE15      29.77R FOG
PHILADELPHIA   CLOUDY    48  45  89 NE15G28   29.74R
$$




USA.gov is the U.S. government's official web portal to all federal, state and local government web resources and services.